This is the latest recevied weather packets stored in our database for station/object W9WRP. If no packets are shown the sender has not sent any weather packets the latest 10 day(s).
| Time | Temp. | Humidity | Pressure | Rain* | Wind** | Luminosity | Snow |
|---|---|---|---|---|---|---|---|
| 1787695175 | 44.44° C | 13% | 1013.1 hPa | 0 mm | - | 432 W/m² | - |
| 1787694874 | 43.89° C | 13% | 1013.3 hPa | 0 mm | - | 557 W/m² | - |
| 1787694570 | 43.89° C | 13% | 1013.2 hPa | 0 mm | - | 567 W/m² | - |
| 1787694269 | 45.56° C | 12% | 1013.5 hPa | 0 mm | - | 575 W/m² | - |
| 1787693964 | 45° C | 13% | 1013.3 hPa | 0 mm | - | 587 W/m² | - |
| 1787693660 | 45° C | 13% | 1013.5 hPa | 0 mm | - | 597 W/m² | - |
| 1787693357 | 44.44° C | 13% | 1013.6 hPa | 0 mm | - | 606 W/m² | - |
| 1787693052 | 43.89° C | 13% | 1013.7 hPa | 0 mm | - | 615 W/m² | - |
| 1787692748 | 44.44° C | 13% | 1013.9 hPa | 0 mm | - | 626 W/m² | - |
| 1787692443 | 45° C | 13% | 1013.9 hPa | 0 mm | - | 633 W/m² | - |
| 1787692142 | 45.56° C | 14% | 1013.8 hPa | 0 mm | - | 644 W/m² | - |
| 1787691842 | 45° C | 13% | 1013.8 hPa | 0 mm | - | 652 W/m² | - |
| 1787691540 | 45° C | 14% | 1014 hPa | 0 mm | - | 660 W/m² | - |
| 1787691240 | 44.44° C | 14% | 1013.9 hPa | 0 mm | - | 668 W/m² | - |
| 1787690935 | 43.89° C | 14% | 1014.2 hPa | 0 mm | - | 675 W/m² | - |
| 1787690629 | 44.44° C | 14% | 1014.2 hPa | 0 mm | - | 682 W/m² | - |
| 1787690319 | 45° C | 14% | 1014.3 hPa | 0 mm | - | 687 W/m² | - |
| 1787690016 | 45.56° C | 13% | 1014.3 hPa | 0 mm | - | 690 W/m² | - |
| 1787689712 | 45.56° C | 14% | 1014.5 hPa | 0 mm | - | 696 W/m² | - |
| 1787689406 | 44.44° C | 14% | 1014.4 hPa | 0 mm | - | 702 W/m² | - |
| 1787689100 | 45° C | 14% | 1014.4 hPa | 0 mm | - | 703 W/m² | - |
| 1787688796 | 45° C | 14% | 1014.6 hPa | 0 mm | - | 709 W/m² | - |
| 1787688492 | 43.89° C | 15% | 1014.6 hPa | 0 mm | - | 711 W/m² | - |
| 1787688186 | 43.33° C | 15% | 1014.6 hPa | 0 mm | - | 714 W/m² | - |
| 1787687883 | 44.44° C | 14% | 1014.7 hPa | 0 mm | - | 716 W/m² | - |
* Rain latest hour (hover to see other rain measurements)
** Current wind speed in m/s (hover to see current wind gust speed)